Weather History for KDUG - August, 2013

Change the Weather History Date:

Saturday, August 17, 2013

  Actual Average Record
Temperature  
Mean Temperature 81 °F 78 °F  
Max Temperature 97 °F 92 °F 98 °F (1992)
Min Temperature 65 °F 65 °F 56 °F (1984)
Degree Days  
Heating Degree Days 0 0  
Month to date heating degree days 0 0  
Since 1 June heating degree days 0 0  
Since 1 July heating degree days 0 0  
Cooling Degree Days 16 13  
Month to date cooling degree days 206 223  
Year to date cooling degree days 1360 1284  
Since 1 June cooling degree days 1160 1083  
Growing Degree Days 31 (Base 50)    
Moisture  
Dew Point 56 °F    
Average Humidity 48    
Maximum Humidity 78    
Minimum Humidity 17    
Precipitation  
Precipitation 0.00 in 0.10 in 1.52 in (1986)
Month to date precipitation 3.00 1.95  
Year to date precipitation 14.10 7.91  
Snow  
Snow 0.00 in - - ()
Month to date snowfall 0.0  
Snow Depth 0.00 in    
Sea Level Pressure  
Sea Level Pressure 29.88 in    
Wind  
Wind Speed 3 mph (ESE)    
Max Wind Speed 13 mph    
Max Gust Speed 16 mph    
Visibility 10 miles    
Events      
T = Trace of Precipitation, MM = Missing Value Source: NWS Daily Summary

Daily Weather History Graph

Daily Weather History Graph

Search for Another Location

Airport or City:

Trip Planner

Search our weather history database for the weather conditions in past years. The results will help you decide how hot, cold, wet, or windy it might be!

Date:

Astronomy

Aug. 17, 2013 Rise Set
Actual Time 5:45 AM MST 6:59 PM MST
Civil Twilight 5:19 AM MST 7:24 PM MST
Nautical Twilight 4:49 AM MST 7:54 PM MST
Astronomical Twilight 4:18 AM MST 8:26 PM MST
Moon 4:11 PM MST (8/17) 1:58 AM MST (8/17)
Length of Visible Light 14h 04m
Length of Day
13h 13m
Waxing Gibbous, 85% of the Moon is Illuminated
Aug 17
Waxing Gibbous
Aug 20
Full
Aug 28
Last Quarter
Sep 5
New
Sep 12
First Quarter

Hourly Weather History & Observations

Time (MST) Temp. Heat Index Dew Point Humidity Pressure Visibility Wind Dir Wind Speed Gust Speed Precip Events Conditions
12:56 AM 73.9 °F - 60.1 °F 62% 29.92 in 10.0 mi East 4.6 mph - N/A   Clear
1:56 AM 71.1 °F - 60.1 °F 68% 29.93 in 10.0 mi SSE 3.5 mph - N/A   Clear
2:56 AM 69.1 °F - 60.1 °F 73% 29.92 in 10.0 mi East 3.5 mph - N/A   Clear
3:56 AM 70.0 °F - 59.0 °F 68% 29.91 in 10.0 mi ENE 3.5 mph - N/A   Clear
4:56 AM 68.0 °F - 59.0 °F 73% 29.92 in 10.0 mi Calm Calm - N/A   Clear
5:56 AM 66.0 °F - 59.0 °F 78% 29.95 in 10.0 mi Calm Calm - N/A   Clear
6:56 AM 69.1 °F - 61.0 °F 75% 29.96 in 10.0 mi Calm Calm - N/A   Clear
7:56 AM 75.9 °F - 62.1 °F 62% 29.96 in 10.0 mi Calm Calm - N/A   Clear
8:56 AM 80.1 °F 81.1 °F 61.0 °F 52% 29.96 in 10.0 mi Calm Calm - N/A   Clear
9:56 AM 84.0 °F 84.4 °F 61.0 °F 46% 29.95 in 10.0 mi Calm Calm - N/A   Clear
10:56 AM 87.1 °F 86.7 °F 60.1 °F 40% 29.93 in 10.0 mi Calm Calm - N/A   Clear
11:56 AM 91.9 °F 90.0 °F 55.0 °F 29% 29.90 in 10.0 mi Calm Calm - N/A   Clear
12:56 PM 93.0 °F - 51.1 °F 24% 29.87 in 10.0 mi Variable 6.9 mph - N/A   Clear
1:56 PM 95.0 °F - 48.9 °F 21% 29.85 in 10.0 mi South 10.4 mph - N/A   Clear
2:56 PM 96.1 °F - 44.1 °F 17% 29.82 in 10.0 mi SSW 4.6 mph - N/A   Clear
3:56 PM 96.1 °F - 46.9 °F 19% 29.80 in 10.0 mi SE 10.4 mph - N/A   Clear
4:56 PM 95.0 °F - 45.0 °F 18% 29.79 in 10.0 mi West 3.5 mph - N/A   Clear
5:56 PM 91.0 °F - 51.1 °F 25% 29.79 in 10.0 mi North 4.6 mph - N/A   Clear
6:56 PM 88.0 °F - 52.0 °F 29% 29.81 in 10.0 mi Calm Calm - N/A   Clear
7:56 PM 81.0 °F 81.3 °F 59.0 °F 47% 29.82 in 10.0 mi South 3.5 mph - N/A   Partly Cloudy
8:56 PM 79.0 °F - 57.0 °F 47% 29.84 in 10.0 mi NE 3.5 mph - N/A   Mostly Cloudy
9:56 PM 77.0 °F - 55.0 °F 47% 29.85 in 10.0 mi SSE 4.6 mph - N/A   Partly Cloudy
10:56 PM 78.1 °F - 52.0 °F 40% 29.85 in 10.0 mi East 4.6 mph - N/A   Clear
11:56 PM 73.9 °F - 53.1 °F 48% 29.86 in 10.0 mi ESE 6.9 mph - N/A   Clear